STARLINK-11527, 62523

Orbit data source: Space-Track

STARLINK-11527, 62523 is a payload satellite owned by SpaceX/Seattle (US) in LEO that was launched on Wed, 08 Jan 2025 UTC via an FALCON 9 launch vehicle from the Air Force Eastern Test Range (AFETR). Payload-class satellites include a variety of spacecraft equipped with specific instruments for various scientific and technological missions. These include communications satellites like Starlink; space stations such as the ISS; scientific satellites like the Hubble; Earth observation satellites from companies like Planet Labs, Umbra, and HawkEye 360; GPS; miniature CubeSats for education and research; and military/defense satellites.

Loading next visibility...
Identifier
62523, 2025-004N
Orbit
LEO
Country
Flag of USUS
Related business
Manufacturer
SpaceX/Seattle
Mission
Operational Commercial Communications
Bus & Motor
STARLINK V2MD, Unknown motor
Mass
960 kg wet, ~910 kg dry
Launch date (UTC)
2025-01-08 (2 years ago)
Launch vehicle
FALCON 9
Launch site
Air Force Eastern Test Range (AFETR)
Object type
Payload
Rocket body
Debris
Shape & HBR
Box + 2 Pan, 18.1 m
Radar Cross Section
36.964 m², Large (>1 m²)

Expand to show TLE details & history
Last TLE update: 10 hours ago

TLE from 10 hours ago
0 STARLINK-11527
1 62523U 25004N   26254.74871483  .00184387  00000-0  14059-2 0  9992
2 62523  43.0007  28.9682 0001654 297.2086  62.8613 15.70889166 96472
Epoch: 2026-09-11T17:58Z
TLE epoch observation values (Epoch: 2026-09-11T17:58:08.961Z)
Latitude
-0.00001°
Longitude
128.66324°
Altitude
355.618 km
Speed
7.698 km/s
True Right ascension
01h 55m 52s
True Declination
0° 00' 00"
Sunlit
Object was in full shadow at epoch
Visualization orbit readout
Latitude
Unknown
Longitude
Unknown
Altitude
Unknown
Speed
Unknown
Apparent Right ascension
Unknown
Apparent Declination
Unknown
Sunlit
N/A
Visualization observer readout
Local Sidereal Time
20:06:23
Azimuth
Unknown
Elevation
Unknown
Doppler factor
Unknown
Orbital elements
Apogee altitude
359.45 km
Perigee altitude
357.222 km
Semi-major axis
6,736.473 km
Eccentricity
0.00017
Inclination
43.0007°
RAAN
28.9682°
Arg. of periapsis
297.2086°
True anomaly
62.87817°
Mean anomaly
62.8613°
Eccentric anomaly
62.86973°
Mean motion
3.92549 °/min
Orbital period
91.71 mins
BSTAR
0.0014059
Loading maneuver chart data...
Computing Atmospheric mass density...
Loading historical data...
Loading historical data...
Loading historical data...
Loading historical data...
Loading historical data...
Loading historical data...
Loading historical data...

Documentation

Showing up to 5 results
|